When you browse on this site, cookies collect data to enhance your experience and personalize the content and advertising you see.
Visit our Privacy Policy to learn more. By continuing to use the site, you agree to this use of cookies and data.
  • In Latvia
  • List of Countries
  • For 7 days
  • Water Temperature
  • Weather Map
  • Weather Widgets
  • user-avatar
    Login

    Hourly Weather Darna

    Today, 6 June, Saturday

    Time Temperature Precipitation Wind Pressure Humidity
    00:00 +32°C° 0 mm 12 mps 751 mmHg 24%
    01:00 +31°C° 0 mm 11 mps 751 mmHg 26%
    02:00 +29°C° 0 mm 11 mps 751 mmHg 27%
    03:00 +27°C° 0 mm 9 mps 751 mmHg 36%
    04:00 +26°C° 0 mm 7 mps 751 mmHg 46%
    05:00 +23°C° 0 mm 6 mps 752 mmHg 55%
    06:00 +24°C° 0 mm 7 mps 752 mmHg 56%
    07:00 +26°C° 0 mm 7 mps 753 mmHg 58%
    08:00 +26°C° 0 mm 8 mps 753 mmHg 59%
    09:00 +28°C° 0 mm 8 mps 753 mmHg 50%
    10:00 +29°C° 0 mm 8 mps 754 mmHg 41%
    11:00 +32°C° 0 mm 8 mps 754 mmHg 32%
    12:00 +32°C° 0 mm 8 mps 754 mmHg 33%
    13:00 +32°C° 0 mm 9 mps 754 mmHg 35%
    14:00 +32°C° 0 mm 9 mps 754 mmHg 36%
    15:00 +31°C° 0 mm 10 mps 754 mmHg 38%
    16:00 +29°C° 0 mm 10 mps 754 mmHg 41%
    17:00 +28°C° 0 mm 10 mps 754 mmHg 43%
    18:00 +26°C° 0 mm 10 mps 754 mmHg 54%
    19:00 +24°C° 0 mm 9 mps 754 mmHg 65%
    20:00 +22°C° 0 mm 9 mps 754 mmHg 76%
    21:00 +21°C° 0 mm 9 mps 754 mmHg 78%
    22:00 +21°C° 0 mm 9 mps 755 mmHg 80%
    23:00 +21°C° 0 mm 8 mps 755 mmHg 83%

    Tomorrow, 7 June, Sunday

    Time Temperature Precipitation Wind Pressure Humidity
    00:00 +20°C° 0 mm 8 mps 755 mmHg 84%
    01:00 +20°C° 0 mm 7 mps 755 mmHg 86%
    02:00 +20°C° 0 mm 6 mps 754 mmHg 88%
    03:00 +19°C° 0 mm 6 mps 754 mmHg 88%
    04:00 +19°C° 0 mm 5 mps 754 mmHg 89%
    05:00 +19°C° 0 mm 5 mps 754 mmHg 89%
    06:00 +20°C° 0 mm 5 mps 754 mmHg 83%
    07:00 +21°C° 0 mm 5 mps 755 mmHg 77%
    08:00 +22°C° 0 mm 6 mps 755 mmHg 71%
    09:00 +25°C° 0 mm 5 mps 755 mmHg 65%
    10:00 +26°C° 0 mm 5 mps 755 mmHg 58%
    11:00 +27°C° 0 mm 5 mps 755 mmHg 51%
    12:00 +27°C° 0 mm 6 mps 755 mmHg 52%
    13:00 +28°C° 0 mm 6 mps 755 mmHg 53%
    14:00 +28°C° 0 mm 7 mps 755 mmHg 53%
    15:00 +27°C° 0 mm 7 mps 755 mmHg 56%
    16:00 +27°C° 0 mm 7 mps 754 mmHg 59%
    17:00 +26°C° 0 mm 7 mps 754 mmHg 62%
    18:00 +24°C° 0 mm 7 mps 754 mmHg 70%
    19:00 +22°C° 0 mm 6 mps 754 mmHg 77%
    20:00 +21°C° 0 mm 5 mps 754 mmHg 85%
    21:00 +21°C° 0 mm 5 mps 755 mmHg 87%
    22:00 +21°C° 0 mm 4 mps 755 mmHg 88%
    23:00 +20°C° 0 mm 4 mps 755 mmHg 89%

    Day after tomorrow, 8 June, Monday

    Time Temperature Precipitation Wind Pressure Humidity
    00:00 +20°C° 0 mm 3 mps 755 mmHg 88%
    01:00 +20°C° 0 mm 3 mps 755 mmHg 86%
    02:00 +20°C° 0 mm 3 mps 754 mmHg 85%
    03:00 +19°C° 0 mm 3 mps 754 mmHg 82%
    04:00 +19°C° 0 mm 3 mps 754 mmHg 79%
    05:00 +19°C° 0 mm 3 mps 754 mmHg 76%
    06:00 +21°C° 0 mm 3 mps 754 mmHg 67%
    07:00 +24°C° 0 mm 3 mps 754 mmHg 57%
    08:00 +26°C° 0 mm 2 mps 754 mmHg 47%
    09:00 +27°C° 0 mm 3 mps 754 mmHg 43%
    10:00 +29°C° 0 mm 3 mps 754 mmHg 40%
    11:00 +31°C° 0 mm 3 mps 754 mmHg 36%
    12:00 +30°C° 0 mm 4 mps 754 mmHg 39%
    13:00 +30°C° 0 mm 5 mps 754 mmHg 42%
    14:00 +29°C° 0 mm 6 mps 754 mmHg 45%
    15:00 +29°C° 0 mm 5 mps 754 mmHg 46%
    16:00 +28°C° 0 mm 5 mps 754 mmHg 47%
    17:00 +28°C° 0 mm 4 mps 753 mmHg 48%
    18:00 +27°C° 0 mm 3 mps 754 mmHg 52%
    19:00 +25°C° 0 mm 2 mps 754 mmHg 57%
    20:00 +24°C° 0 mm 1 mps 754 mmHg 61%
    21:00 +24°C° 0 mm 1 mps 754 mmHg 58%
    22:00 +24°C° 0 mm 1 mps 754 mmHg 55%
    23:00 +24°C° 0 mm 1 mps 754 mmHg 53%

    9 June, Tuesday

    Time Temperature Precipitation Wind Pressure Humidity
    00:00 +24°C° 0 mm 1 mps 754 mmHg 49%
    01:00 +24°C° 0 mm 2 mps 754 mmHg 46%
    02:00 +25°C° 0 mm 2 mps 753 mmHg 42%
    03:00 +25°C° 0 mm 3 mps 753 mmHg 40%
    04:00 +26°C° 0 mm 3 mps 753 mmHg 38%
    05:00 +26°C° 0 mm 4 mps 753 mmHg 36%
    06:00 +28°C° 0 mm 4 mps 754 mmHg 33%
    07:00 +29°C° 0 mm 5 mps 754 mmHg 29%
    08:00 +32°C° 0 mm 5 mps 754 mmHg 26%
    09:00 +34°C° 0 mm 4 mps 754 mmHg 23%
    10:00 +36°C° 0 mm 3 mps 754 mmHg 19%
    11:00 +39°C° 0 mm 3 mps 754 mmHg 16%
    12:00 +38°C° 0 mm 3 mps 754 mmHg 17%
    13:00 +38°C° 0 mm 3 mps 754 mmHg 18%
    14:00 +38°C° 0 mm 3 mps 754 mmHg 18%
    15:00 +38°C° 0 mm 4 mps 753 mmHg 18%
    16:00 +38°C° 0 mm 4 mps 753 mmHg 18%
    17:00 +38°C° 0 mm 4 mps 753 mmHg 17%
    18:00 +37°C° 0 mm 4 mps 753 mmHg 19%
    19:00 +36°C° 0 mm 4 mps 753 mmHg 21%
    20:00 +34°C° 0 mm 4 mps 753 mmHg 23%
    21:00 +33°C° 0 mm 4 mps 753 mmHg 25%
    22:00 +33°C° 0 mm 4 mps 753 mmHg 26%
    23:00 +32°C° 0 mm 4 mps 754 mmHg 27%

    10 June, Wednesday

    Time Temperature Precipitation Wind Pressure Humidity
    00:00 +32°C° 0 mm 5 mps 753 mmHg 27%
    01:00 +32°C° 0 mm 5 mps 753 mmHg 28%
    02:00 +32°C° 0 mm 5 mps 753 mmHg 28%
    03:00 +30°C° 0 mm 5 mps 753 mmHg 28%
    04:00 +30°C° 0 mm 4 mps 753 mmHg 28%
    05:00 +30°C° 0 mm 4 mps 752 mmHg 27%
    06:00 +33°C° 0 mm 4 mps 753 mmHg 26%
    07:00 +35°C° 0 mm 3 mps 753 mmHg 25%
    08:00 +37°C° 0 mm 3 mps 753 mmHg 24%
    09:00 +38°C° 0 mm 4 mps 753 mmHg 24%
    10:00 +40°C° 0 mm 4 mps 753 mmHg 23%
    11:00 +41°C° 0 mm 5 mps 754 mmHg 23%
    12:00 +41°C° 0 mm 5 mps 754 mmHg 24%
    13:00 +40°C° 0 mm 6 mps 753 mmHg 25%
    14:00 +40°C° 0 mm 6 mps 753 mmHg 27%
    15:00 +37°C° 0 mm 5 mps 753 mmHg 32%
    16:00 +35°C° 0 mm 5 mps 753 mmHg 38%
    17:00 +33°C° 0 mm 4 mps 753 mmHg 43%
    18:00 +30°C° 0 mm 5 mps 753 mmHg 53%
    19:00 +29°C° 0 mm 6 mps 753 mmHg 63%
    20:00 +27°C° 0 mm 6 mps 753 mmHg 73%
    21:00 +26°C° 0 mm 6 mps 754 mmHg 74%
    22:00 +26°C° 0 mm 6 mps 754 mmHg 74%
    23:00 +25°C° 0 mm 5 mps 755 mmHg 75%

    11 June, Thursday

    Time Temperature Precipitation Wind Pressure Humidity
    00:00 +25°C° 0 mm 5 mps 754 mmHg 74%
    01:00 +25°C° 0 mm 4 mps 754 mmHg 73%
    02:00 +23°C° 0 mm 4 mps 754 mmHg 72%
    03:00 +25°C° 0 mm 4 mps 754 mmHg 65%
    04:00 +26°C° 0 mm 5 mps 754 mmHg 57%
    05:00 +26°C° 0 mm 6 mps 755 mmHg 49%
    06:00 +27°C° 0 mm 5 mps 755 mmHg 48%
    07:00 +28°C° 0 mm 4 mps 755 mmHg 47%
    08:00 +29°C° 0 mm 4 mps 754 mmHg 45%
    09:00 +30°C° 0 mm 3 mps 754 mmHg 42%
    10:00 +31°C° 0 mm 3 mps 754 mmHg 38%
    11:00 +34°C° 0 mm 2 mps 754 mmHg 35%
    12:00 +34°C° 0 mm 2 mps 754 mmHg 36%
    13:00 +33°C° 0 mm 3 mps 753 mmHg 37%
    14:00 +33°C° 0 mm 3 mps 753 mmHg 38%
    15:00 +33°C° 0 mm 3 mps 753 mmHg 37%
    16:00 +32°C° 0 mm 4 mps 753 mmHg 36%
    17:00 +32°C° 0 mm 4 mps 753 mmHg 35%
    18:00 +29°C° 0.2 mm 4 mps 753 mmHg 45%
    19:00 +27°C° 0.2 mm 4 mps 753 mmHg 55%
    20:00 +24°C° 0.2 mm 3 mps 753 mmHg 65%
    21:00 +24°C° 0.1 mm 3 mps 753 mmHg 65%
    22:00 +24°C° 0.1 mm 3 mps 753 mmHg 66%
    23:00 +24°C° 0.1 mm 2 mps 753 mmHg 66%
    Show more